Flag for Germany Weather past 2 weeks in Neuwied, Rhineland-Palatinate, Germany

Now
59 °F

Partly sunny.


Feels Like: 58 °F
Forecast: 39 / 62 °F
Wind: 6 mph from Southeast

Location: Buechel

Current Time: Apr 21, 2015 at 12:48:10 PM

Latest Report: Apr 21, 2015 at 11:20 AM


Visibility: N/A

Pressure: 30.42 "Hg

Humidity: 45%

Dew point: 37 °F

Location of NeuwiedLocation

Historic Weather in Neuwied — Graph

°F

Neuwied temperature yesterday

Maximum temperature yesterday: 63 °F (at 5:20 PM)
Minimum temperature yesterday: 43 °F (at 3:20 AM)
Average temperature yesterday: 52 °F

Past Weeks' High & Low Weather Summary

 TemperatureHumidityPressure
High72 °F (Apr 15, 4:20 PM)93% (Apr 7, 12:20 AM)30.60 "Hg (Apr 7, 12:20 AM)
Low34 °F (Apr 7, 5:20 AM)20% (Apr 10, 4:20 PM)29.89 "Hg (Apr 16, 6:20 PM)
Average50 °F57%30.25 "Hg
* Reported Apr 6 11:20 AM — Apr 21 11:20 AM, Neuwied, Weather by CustomWeather, © 2015

Note: Actual official high and low records may vary slightly from our data, if they occured in-between our weather recording intervals... More about our weather records

Advertising

Neuwied weather history for previous 24 hours

 ConditionsComfort  
Time TempWeatherWind HumidityBarometerVisibility
11:20 AM
Tue, Apr 21
59 °FPartly sunny.6 mph45%30.42 "HgN/A
10:20 AM57 °FPartly sunny.6 mph44%30.42 "HgN/A
9:20 AM55 °FPartly sunny.5 mph47%30.42 "HgN/A
8:20 AM52 °FPartly sunny.5 mph54%30.39 "HgN/A
7:20 AM48 °FPassing clouds.3 mph58%30.39 "HgN/A
6:20 AM48 °FPassing clouds.6 mph58%30.39 "HgN/A
5:20 AM48 °FPassing clouds.6 mph58%30.36 "HgN/A
4:20 AM48 °FCool.6 mph58%30.36 "HgN/A
3:20 AM50 °FCool.5 mph54%30.36 "Hg6 mi
2:20 AM50 °FCool.7 mph54%30.36 "Hg5 mi
1:20 AM50 °FCool.8 mph54%30.36 "Hg6 mi
12:20 AM52 °FCool.10 mph50%30.36 "Hg6 mi
11:20 PM
Mon, Apr 20
54 °FCool.10 mph44%30.36 "Hg6 mi
10:20 PM54 °FCool.12 mph41%30.33 "Hg6 mi
9:20 PM55 °FPassing clouds.9 mph41%30.33 "HgN/A
8:20 PM59 °FPassing clouds.8 mph31%30.30 "HgN/A
7:20 PM61 °FRefreshingly cool.9 mph31%30.30 "HgN/A
6:20 PM63 °FMild.10 mph30%30.30 "HgN/A
5:20 PM63 °FMild.10 mph30%30.30 "HgN/A
4:20 PM61 °FRefreshingly cool.9 mph31%30.30 "HgN/A
3:20 PM61 °FPassing clouds.10 mph31%30.30 "HgN/A
2:20 PM59 °FPassing clouds.10 mph36%30.30 "HgN/A
1:20 PM57 °FPassing clouds.12 mph33%30.33 "HgN/A
12:20 PM55 °FScattered clouds.12 mph38%30.30 "HgN/A
Weather by CustomWeather, © 2015

See weather overviewHow to use our weather pages